KJ4TDM Weather Reports


time (UTC)temp
F
wind
direction
speed
knots
gust
knots
rain 1hr
in
rain 24hr
in
rain mn
in
humidity
%
barometer
mb
20260510231508 80 331 0.0 0.0 0.00 0.00 0.00 56 1015.8
20260510230105 82 331 0.0 0.0 0.00 0.00 0.00 50 1015.8
20260510224543 83 331 0.0 0.0 0.00 0.00 0.00 44 1015.7
20260510223002 85 331 0.0 0.0 0.00 0.00 0.00 43 1015.8
20260510221553 84 331 0.0 0.0 0.00 0.00 0.00 42 1015.8
20260510220007 85 331 0.0 0.0 0.00 0.00 0.00 39 1016.0
20260510214603 84 331 0.0 0.0 0.00 0.00 0.00 43 1015.8
20260510213110 84 332 0.0 0.0 0.00 0.00 0.00 43 1016.0
20260510211502 84 329 0.0 0.9 0.00 0.00 0.00 40 1016.0
20260510210107 83 51 0.0 0.0 0.00 0.00 0.00 44 1016.1
20260510204604 83 51 0.0 0.0 0.00 0.00 0.00 46 1016.1
20260510203006 82 63 0.0 2.6 0.00 0.00 0.00 47 1016.1
20260510201601 84 276 0.0 0.9 0.00 0.00 0.00 44 1016.1
20260510200013 83 302 0.0 0.0 0.00 0.00 0.00 47 1016.3
20260510194612 82 13 0.0 0.0 0.00 0.00 0.00 49 1016.4
20260510193101 83 308 0.0 0.9 0.00 0.00 0.00 46 1016.5
20260510191537 82 84 0.0 1.7 0.00 0.00 0.00 45 1016.6
20260510190110 82 48 0.0 0.9 0.00 0.00 0.00 44 1016.7
20260510184546 81 64 0.0 0.0 0.00 0.00 0.00 42 1016.8
20260510183008 82 344 0.0 0.0 0.00 0.00 0.00 46 1016.8
20260510181628 81 355 0.0 0.0 0.00 0.00 0.00 51 1016.9
20260510180051 81 45 0.0 4.3 0.00 0.00 0.00 49 1017.1
20260510174503 81 281 0.0 0.9 0.00 0.00 0.00 54 1017.2
20260510173059 80 280 0.0 2.6 0.00 0.00 0.00 57 1017.5
20260510171558 78 98 0.0 1.7 0.00 0.00 0.00 57 1017.6
20260510170001 78 98 0.0 2.6 0.00 0.00 0.00 59 1017.8
20260510164604 78 57 0.0 1.7 0.00 0.00 0.00 62 1017.8
20260510163049 80 39 0.0 2.6 0.00 0.00 0.00 63 1017.9
20260510161614 78 38 0.0 1.7 0.00 0.00 0.00 64 1017.9
20260510160054 77 38 0.0 0.9 0.00 0.00 0.00 65 1018.0
20260510154511 77 38 0.0 2.6 0.00 0.00 0.00 68 1017.9
20260510153104 76 66 0.0 2.6 0.00 0.00 0.00 71 1018.0
20260510151520 74 66 0.0 0.0 0.00 0.00 0.00 71 1017.9
20260510150113 73 61 0.0 2.6 0.00 0.00 0.00 74 1017.9
20260510144600 72 42 0.0 0.9 0.00 0.00 0.00 76 1018.0
20260510143032 70 50 0.0 0.9 0.00 0.00 0.00 79 1018.2
20260510141558 69 43 0.0 0.0 0.00 0.00 0.00 82 1018.3
20260510140111 68 42 0.0 0.0 0.00 0.00 0.00 84 1018.3
20260510134553 68 42 0.0 2.6 0.00 0.00 0.00 86 1018.3
20260510133034 67 38 0.0 0.0 0.00 0.00 0.00 86 1018.2
20260510131610 67 34 0.0 0.0 0.00 0.00 0.00 86 1017.9
20260510130046 67 34 0.0 0.0 0.00 0.00 0.00 87 1017.6
20260510124503 67 32 0.0 0.0 0.00 0.00 0.00 88 1017.5
20260510123100 66 33 0.0 0.0 0.00 0.00 0.00 89 1017.3
20260510120054 65 31 0.0 0.0 0.00 0.00 0.00 91 1016.8
20260510114509 65 293 0.0 0.0 0.00 0.00 0.00 93 1016.5
20260510113102 65 293 0.0 0.0 0.00 0.00 0.00 93 1016.5
20260510111541 65 293 0.0 0.0 0.00 0.00 0.00 93 1016.2
20260510110108 65 293 0.0 0.0 0.00 0.00 0.00 93 1015.8
20260510104550 65 293 0.0 0.0 0.00 0.00 0.00 93 1015.4
20260510103002 65 293 0.0 0.0 0.00 0.00 0.00 94 1015.2
20260510101614 65 293 0.0 0.0 0.00 0.00 0.00 93 1015.3
20260510100049 65 293 0.0 0.9 0.00 0.00 0.00 94 1015.3
20260510094616 65 292 0.0 0.0 0.00 0.00 0.00 94 1015.1
20260510093008 65 292 0.0 0.0 0.00 0.00 0.00 94 1014.9
20260510091605 65 291 0.0 0.0 0.00 0.00 0.00 94 1014.6
20260510090042 65 291 0.0 0.0 0.00 0.00 0.00 94 1014.7
20260510084618 65 291 0.0 0.0 0.00 0.00 0.00 94 1014.7
20260510083054 65 291 0.0 0.0 0.00 0.00 0.00 94 1014.5
20260510081541 65 291 0.0 0.0 0.00 0.00 0.00 95 1014.3
20260510080113 65 291 0.0 0.0 0.00 0.00 0.00 95 1014.2
20260510074550 65 291 0.0 0.0 0.00 0.00 0.00 95 1014.1
20260510073114 65 291 0.0 0.0 0.00 0.00 0.00 94 1014.0
20260510071548 65 291 0.0 0.0 0.00 0.00 0.00 95 1014.0
20260510070114 64 291 0.0 0.0 0.00 0.00 0.00 95 1014.1
20260510064546 64 291 0.0 0.0 0.00 0.00 0.00 95 1014.3
20260510063116 64 291 0.0 0.0 0.00 0.00 0.00 94 1014.2
20260510061553 64 291 0.0 0.0 0.00 0.00 0.00 94 1014.4
20260510060114 64 291 0.0 0.0 0.00 0.00 0.00 94 1014.5
20260510054553 64 291 0.0 0.0 0.00 0.00 0.00 94 1014.7
20260510053007 64 291 0.0 0.0 0.00 0.00 0.00 94 1014.7
20260510051609 64 291 0.0 0.0 0.00 0.00 0.00 95 1014.6
20260510050050 64 291 0.0 0.0 0.00 0.00 0.00 94 1014.6
20260510044606 64 291 0.0 0.0 0.00 0.00 0.00 94 1014.8
20260510043021 64 291 0.0 0.0 0.00 0.00 0.00 94 1014.8
20260510041614 64 291 0.0 0.0 0.00 0.00 0.00 93 1014.8
20260510040110 64 291 0.0 0.0 0.00 0.00 0.00 94 1014.9
20260510034510 64 291 0.0 0.0 0.00 0.00 0.00 93 1014.9
20260510033111 64 291 0.0 0.0 0.00 0.00 0.00 93 1014.9
20260510031552 64 291 0.0 0.0 0.00 0.00 0.00 92 1014.9
20260510030008 64 291 0.0 0.0 0.00 0.00 0.00 92 1014.7
20260510024602 65 291 0.0 0.0 0.00 0.00 0.00 91 1014.5
20260510023040 65 291 0.0 0.0 0.00 0.00 0.00 90 1014.4
20260510021652 66 291 0.0 0.0 0.00 0.00 0.00 91 1014.1
20260510020100 66 291 0.0 0.0 0.00 0.00 0.00 90 1013.9
20260510014526 67 291 0.0 0.0 0.00 0.00 0.00 89 1013.5
20260510013125 67 291 0.0 0.0 0.00 0.00 0.00 89 1013.2
20260510011542 68 291 0.0 0.0 0.00 0.00 0.00 88 1013.2
20260510010006 68 291 0.0 0.0 0.00 0.00 0.00 87 1012.8
20260510004558 69 291 0.0 0.0 0.00 0.00 0.00 85 1012.7
20260510003012 70 291 0.0 0.0 0.00 0.00 0.00 84 1012.6
20260510001609 71 291 0.0 0.0 0.00 0.00 0.00 83 1012.4
20260510000004 72 291 0.0 0.0 0.00 0.00 0.00 81 1012.1
20260509234556 73 291 0.0 0.0 0.00 0.00 0.00 79 1012.2
20260509233012 74 291 0.0 0.0 0.00 0.00 0.00 76 1012.1